Tracking 23757 objects as of 25-Oct-2021
HD Live streaming from Space Station
objects crossing your sky now

INTELSAT 3-F8

Track INTELSAT 3-F8 now!
INTELSAT 3-F8 is classified as:


NORAD ID: 4478
Int'l Code: 1970-055A
Perigee: 33,890.3 km
Apogee: 36,597.1 km
Inclination: 1.3 °
Period: 1,408.1 minutes
Semi major axis: 41614 km
RCS: 2.5127 m2 (large)
Launch date: July 23, 1970
Source: International Telecommunications Satellite Organization (ITSO)
Launch site: AIR FORCE EASTERN TEST RANGE (AFETR)
aabbcc
Your satellite tracking list
Your tracking list is empty




NASA's NSSDC Master Catalog

Two Line Element Set (TLE):
1 04478U 70055A   21297.90963691 -.00000218  00000-0  00000-0 0  9996
2 04478   1.3124  78.8784 0325229  71.0043 268.8031  1.02266367105474
Source of the keplerian elements: AFSPC